Regional Weather Roundup
Issued by NWS Midland/Odessa, TX

Home | Current Version | Previous Version | Text Only | Print | Product List | Glossary On
Versions: 1 2 3 4 5 6 7 8 9 10 11 12 13 14 15 16 17 18 19 20 21 22 23 24 25 26 27 28 29 30 31 32 33 34 35 36 37 38 39 40 41 42 43 44 45 46 47 48 49 50
000
ASUS44 KMAF 061310
RWRMAF
MIDLAND AREA WEATHER ROUNDUP
NATIONAL WEATHER SERVICE MIDLAND TX
700 AM CST FRI MAR 06 2015

...IN SOUTHWEST TEXAS AND SOUTHEAST NEW MEXICO...

CITY           SKY/WX    TMP DP  RH WIND       PRES   REMARKS
ALPINE         CLEAR     30  25  81 SW10      30.43R WCI  21
ANDREWS        FAIR      21  20  96 CALM      30.42S
ARTESIA        FOG       25  25 100 CALM      30.40R VSB<1/4
BIG SPRING     CLEAR     23  17  78 SE6       30.47F WCI  16
CARLSBAD       FOG       21  17  84 CALM      30.39R VSB<1/4
DRYDEN           N/A     30  25  81 NE7       30.45R WCI  23
FORT STOCKTON  PTCLDY    27  24  89 S6        30.41R WCI  20
GUAD PASS      NOT AVBL
HOBBS          CLEAR     23  23 100 CALM      30.40R
MARFA          CLEAR     19  18  93 N7        30.39R WCI  10
MIDLAND AIRPK  CLEAR     28  22  77 S7        30.44F WCI  21
MIDLAND INTL   CLEAR     25  20  81 S8        30.43S WCI  16
ODESSA         CLEAR     26  19  74 S8        30.43R WCI  18
PECOS          CLEAR     24  22  94 W3        30.44R FOG
PRESIDIO       FAIR      34  25  69 NE3       30.41R
SEMINOLE       PTCLDY    21  20  98 CALM      30.41F
SNYDER         PTCLDY    22  19  88 S6        30.47S WCI  15
WINK           CLEAR     25  20  81 NE3       30.41R
$$
...OTHER STATIONS IN TEXAS...

CITY           SKY/WX    TMP DP  RH WIND       PRES   REMARKS
ABILENE        CLEAR     26  18  71 S8        30.51R WCI  18
AMARILLO       CLEAR     25  21  85 SW9       30.35R WCI  15
AUSTIN         MOCLDY    23  21  92 CALM      30.59R
BROWNSVILLE    CLOUDY    44  33  65 N12       30.51R WCI  38
CORPUS CHRISTI CLOUDY    38  27  64 NE13      30.57R WCI  30
DALLAS FTW     PTCLDY    24  21  88 CALM      30.57S
DEL RIO        CLEAR     32  27  81 E3        30.54R
EL PASO        PTCLDY    27  20  75 CALM      30.36R
HOUSTON INT    PTCLDY    30  24  78 CALM      30.58S
LUBBOCK        CLEAR     23  21  92 W6        30.40R WCI  16
SAN ANGELO     PTCLDY    22  18  85 CALM      30.50R
SAN ANTONIO    PTCLDY    32  18  56 N7        30.56R WCI  26
WACO           PTCLDY    21  18  88 CALM      30.59S
WICHITA FALLS  NOT AVBL
$$
...OTHER LOCATIONS IN NEW MEXICO...

CITY           SKY/WX    TMP DP  RH WIND       PRES   REMARKS
ALAMAGORDO     CLEAR     27  21  80 N6        30.37S WCI  20
ALBUQUERQUE    CLEAR     32  14  47 N6        30.38R WCI  26
CANNON AFB     PTCLDY    22  20  93 NW7       30.34S WCI  14
CLOVIS         PTCLDY    19  18  93 W7        30.34S WCI  10
HOLLOMAN AFB   CLEAR     26  21  81 N5        30.36R WCI  20
ROSWELL        FOG       24  22  91 S5        30.39R VSB 1/2 WCI  18
RUIDOSO        CLEAR     25   5  42 S5        30.37R WCI  19
SANTA FE       CLEAR     23  13  65 N8        30.34R WCI  14
TRUTH OR CONSE CLEAR     28  16  60 NW3       30.36R
TUCUMCARI      CLEAR     22  19  89 SW6       30.33R WCI  14
$$


USA.gov is the U.S. government's official web portal to all federal, state and local government web resources and services.